Wind_Speed
26 26 26 26 26 26 26 26 25 25 25 26 26 26 26 27 27 28 27 28 28 28 28 28 28 28 29 29 29 29 29 30 30 31 32 32 33 33 33 32 32 32 32
27 28 27 26 26 26 26 26 26 26 26 26 27 27 27 28 28 29 29 29 29 29 30 30 30 30 30 30 31 31 32 32 32 33 33 34 34 34 35 35 34 33 33
29 28 28 27 27 27 27 27 28 28 27 28 28 28 28 29 30 30 30 30 30 30 30 31 31 31 31 32 32 33 33 34 34 34 34 35 35 34 34 35 35 35 35
30 29 29 29 29 28 28 29 29 29 29 29 29 29 30 30 30 30 30 31 31 31 31 32 32 32 33 34 34 35 35 35 35 36 36 36 36 35 35 35 36 36 37
30 30 30 30 30 30 30 30 30 30 30 31 31 31 31 31 31 32 32 33 33 33 33 33 34 35 35 35 35 36 36 36 36 36 37 37 37 37 37 37 37 38 38
31 30 31 31 31 32 32 32 32 32 32 32 32 32 32 33 33 34 34 35 35 35 35 35 35 35 36 36 36 37 37 36 36 36 37 37 38 38 38 38 38 38 38
32 32 32 32 33 33 33 33 33 34 33 32 33 33 34 35 35 36 36 37 37 37 37 38 37 37 38 38 38 38 38 37 37 36 36 37 38 38 39 38 39 39 40
34 33 34 34 34 34 34 34 35 34 35 34 35 36 36 36 37 37 38 38 38 39 39 40 39 39 39 38 38 38 38 38 37 37 37 38 38 39 39 39 39 39 40
36 36 35 35 34 34 35 35 36 36 37 37 37 37 38 38 38 39 39 40 40 40 41 42 41 40 40 40 40 39 39 38 38 38 38 39 40 40 40 40 41 40 40
36 36 35 35 36 36 37 37 37 38 39 39 39 40 40 40 40 40 41 41 41 41 42 42 42 42 42 42 42 41 40 40 40 40 40 41 41 41 42 42 42 41 41
36 36 37 37 37 38 38 39 39 40 40 41 41 41 42 42 42 42 42 42 43 43 43 43 43 43 43 43 42 42 42 42 42 42 42 42 42 42 42 42 42 42 42
37 37 38 38 39 39 40 41 41 42 42 43 44 44 44 44 44 44 44 44 45 44 43 43 43 44 43 43 43 43 44 44 44 44 44 43 43 43 42 42 42 42 42
37 38 39 40 41 41 42 43 43 44 45 45 45 45 45 46 46 46 45 45 45 43 43 43 43 44 44 44 44 44 45 45 45 45 44 44 44 44 44 43 44 44 44
38 39 41 42 43 43 43 44 44 45 45 46 46 46 46 46 46 45 45 45 45 44 44 44 44 45 46 46 46 46 46 46 46 46 46 45 45 45 45 45 45 45 45
40 41 42 42 43 44 44 45 45 45 45 46 47 46 46 46 46 46 46 46 46 46 45 45 46 46 47 48 48 48 48 47 48 47 47 47 47 46 46 46 45 45 45
41 42 43 43 44 45 45 46 46 47 47 47 48 49 48 47 47 48 48 48 48 47 47 47 47 48 49 49 49 48 48 48 48 48 48 47 47 47 46 46 45 45 45
41 42 43 44 44 44 45 46 47 47 48 49 49 50 49 49 49 48 49 48 48 48 49 49 49 49 49 50 49 49 49 48 48 48 48 48 47 47 47 46 46 46 46
42 42 43 43 43 44 45 46 46 47 47 48 49 49 49 49 49 49 49 49 49 49 49 49 50 50 50 49 49 48 48 48 48 48 48 48 47 48 48 48 47 47 47
43 43 42 43 44 44 45 46 46 46 46 46 47 48 48 49 49 48 48 48 49 49 50 50 50 50 50 50 49 49 48 49 49 49 49 49 49 49 49 49 49 48 48
43 44 43 44 45 45 45 45 46 46 46 47 47 47 48 48 48 48 48 48 49 50 50 50 50 50 50 50 50 49 49 49 49 50 50 50 50 50 50 50 49 49 49
44 45 45 45 46 46 46 46 46 46 47 47 46 47 47 47 47 48 48 49 50 50 50 50 50 50 50 50 50 49 49 49 48 49 49 49 50 50 50 50 50 49 49
44 45 46 46 46 47 46 46 46 46 47 47 48 48 47 48 49 49 50 50 51 51 50 50 50 49 49 50 50 49 49 49 49 49 49 49 50 49 50 49 49 49 49
45 46 46 46 46 46 47 47 47 48 48 49 49 49 50 50 51 51 51 51 51 51 51 51 50 50 49 49 49 49 49 49 49 49 49 49 49 49 49 49 50 49 49
45 46 46 46 46 46 47 47 47 48 49 49 50 50 51 51 51 52 52 51 51 51 51 51 51 50 49 49 49 49 49 49 48 48 48 48 48 49 49 49 49 49 49
44 45 45 46 46 46 47 47 48 48 49 49 50 50 51 51 51 51 51 51 51 50 50 50 50 49 48 48 48 49 48 48 48 47 48 48 48 48 48 48 49 48 48
44 45 45 46 46 47 47 48 49 49 49 50 50 50 50 50 50 51 51 50 49 49 49 49 49 49 49 48 48 48 48 48 47 47 46 46 46 47 46 47 48 48 47
Wind_Direction
265 268 270 271 272 272 272 273 275 277 279 280 281 283 284 285 286 286 286 286 286 286 285 285 285 283 283 283 282 281 280 280 279 278 278 277 278 277 277 276 276 275 273
266 268 271 271 271 272 273 274 276 277 278 280 282 283 284 284 286 286 285 286 286 286 285 285 283 282 282 282 282 282 281 280 279 279 278 276 277 277 276 275 274 275 274
266 268 269 270 271 273 274 275 276 278 279 280 281 282 282 283 285 285 285 285 286 285 285 283 282 282 281 281 281 282 282 281 279 279 278 276 276 276 276 275 274 273 274
267 267 268 270 272 274 275 276 277 278 280 280 280 281 282 283 283 284 284 284 284 283 283 282 283 282 282 281 281 282 282 281 280 278 277 275 276 275 274 276 275 273 274
266 267 268 270 272 274 276 277 277 278 280 280 279 280 281 281 282 283 283 283 283 282 282 282 282 281 281 281 281 282 282 281 279 278 276 276 276 275 274 274 274 274 274
265 267 268 270 273 275 276 277 278 277 279 280 278 279 279 280 281 282 283 283 282 281 281 282 282 281 281 281 281 281 281 280 279 278 277 276 275 275 275 274 274 274 274
266 268 270 272 273 275 276 276 276 276 278 279 279 279 279 280 281 282 283 282 281 280 281 282 281 281 281 282 282 281 281 281 278 277 277 277 276 276 276 276 276 275 275
268 270 272 274 275 275 275 274 275 277 278 279 279 279 280 281 282 283 283 282 281 280 280 281 281 280 280 280 280 281 281 280 278 277 278 277 277 277 276 275 276 276 276
269 271 273 274 276 277 277 276 277 279 278 279 279 280 280 281 282 283 283 282 282 281 281 280 280 279 279 279 279 279 279 279 278 278 278 277 277 276 276 276 276 276 276
269 271 273 274 277 278 279 279 279 280 279 279 280 280 280 281 282 282 283 283 282 282 282 281 279 278 278 278 278 277 277 277 277 278 278 277 276 277 277 276 276 276 276
271 273 274 276 277 279 279 279 279 279 280 280 280 280 280 281 281 282 282 283 282 283 282 280 279 278 277 277 277 276 276 277 278 278 279 278 278 278 277 276 276 275 274
273 274 275 277 278 279 279 278 279 279 279 280 281 281 281 281 282 283 283 283 283 282 281 280 279 278 278 277 277 277 276 276 277 278 279 278 278 278 278 276 275 274 273
273 275 276 277 278 280 280 279 280 280 280 281 282 282 281 282 282 283 283 283 282 282 281 281 280 279 278 278 278 277 277 277 277 277 278 278 278 277 277 276 275 274 273
273 276 277 278 278 279 280 281 281 281 281 281 281 282 282 282 283 283 283 283 282 281 281 281 280 280 279 279 278 278 278 277 277 276 277 277 277 276 275 275 274 273 272
275 277 279 280 281 280 281 281 281 281 282 281 281 282 282 282 283 282 283 283 282 281 281 281 280 280 280 280 278 278 277 277 276 276 275 276 275 276 275 274 273 272 272
277 277 279 281 282 281 282 281 281 281 281 281 282 283 283 283 283 282 282 282 282 281 281 281 280 280 280 280 278 277 277 276 276 275 275 275 275 275 274 274 273 272 272
278 279 279 281 282 282 283 283 282 282 282 282 282 282 284 284 284 284 283 282 281 281 281 281 281 281 281 280 279 278 277 277 276 276 276 275 275 274 273 273 273 273 273
279 280 281 282 282 283 284 284 284 284 284 284 284 283 284 285 284 283 283 282 281 281 281 281 282 281 281 280 279 278 277 276 276 276 275 275 274 274 273 274 273 273 273
280 280 282 283 283 285 285 286 286 285 285 285 285 285 285 284 284 283 283 283 282 282 282 282 282 282 281 280 279 277 276 276 276 276 275 275 274 274 274 274 273 273 272
281 282 283 285 285 287 287 288 286 286 285 285 285 284 284 285 284 284 284 283 283 283 283 283 282 282 281 280 279 278 277 276 277 276 275 275 274 274 274 273 273 273 273
283 284 284 286 286 287 288 288 286 286 285 285 285 285 285 285 285 285 285 284 284 284 284 283 283 282 282 280 279 278 278 277 277 277 276 276 275 275 274 274 275 274 274
284 285 286 287 287 287 288 288 287 286 286 286 286 285 285 285 285 286 285 285 285 284 284 283 283 283 282 281 279 278 278 277 277 277 277 276 276 275 275 275 275 274 274
285 286 287 287 288 288 288 288 287 287 287 287 286 286 287 286 286 286 285 285 284 284 284 283 283 283 282 280 279 278 278 278 278 278 278 277 276 276 276 275 275 274 274
286 287 288 288 288 288 288 288 287 288 288 288 288 288 287 287 287 286 286 286 285 285 284 283 282 282 281 279 279 279 278 278 279 279 278 277 276 276 277 276 276 275 274
288 289 289 289 289 288 288 288 288 289 289 289 289 289 288 288 288 288 288 287 285 284 283 282 282 281 281 280 279 279 278 279 279 279 279 278 277 276 276 276 276 276 275
290 290 290 290 289 289 288 288 289 290 290 290 289 289 290 290 289 289 288 287 286 284 283 282 281 280 280 279 279 279 280 280 280 279 279 278 277 277 276 277 276 276 275
Height
5827 5827 5827 5826 5826 5825 5824 5823 5823 5822 5821 5820 5818 5817 5816 5814 5813 5811 5809 5808 5806 5804 5803 5802 5800 5799 5798 5796 5795 5794 5793 5792 5792 5791 5790 5790 5789 5789 5788 5787 5787 5787 5787
5822 5822 5821 5820 5820 5819 5818 5818 5817 5815 5815 5814 5813 5811 5810 5808 5807 5805 5803 5802 5800 5798 5797 5795 5794 5793 5791 5790 5789 5788 5786 5785 5784 5784 5783 5782 5781 5781 5780 5780 5780 5779 5779
5816 5815 5815 5815 5814 5813 5813 5812 5811 5809 5808 5808 5806 5805 5804 5802 5800 5798 5797 5795 5793 5792 5790 5788 5787 5786 5785 5783 5782 5780 5779 5778 5777 5776 5775 5775 5774 5773 5773 5772 5772 5772 5771
5810 5809 5809 5809 5808 5807 5806 5806 5805 5804 5802 5801 5800 5799 5797 5796 5794 5792 5790 5789 5787 5785 5783 5782 5780 5779 5778 5776 5775 5773 5772 5771 5769 5768 5767 5766 5766 5765 5765 5764 5764 5763 5763
5803 5803 5802 5802 5801 5801 5800 5799 5798 5797 5795 5794 5793 5792 5790 5789 5787 5785 5783 5781 5780 5778 5776 5775 5773 5771 5770 5769 5767 5765 5764 5762 5761 5760 5759 5758 5757 5757 5756 5756 5755 5754 5754
5796 5796 5795 5795 5795 5794 5793 5792 5791 5790 5788 5787 5785 5784 5783 5781 5779 5778 5776 5774 5772 5770 5768 5767 5765 5764 5762 5761 5759 5757 5756 5754 5753 5752 5751 5750 5749 5748 5747 5746 5746 5745 5745
5789 5788 5788 5788 5787 5787 5786 5785 5784 5783 5781 5779 5778 5777 5775 5773 5772 5770 5768 5766 5764 5762 5760 5758 5757 5755 5754 5752 5751 5749 5747 5746 5744 5743 5742 5741 5740 5739 5738 5737 5736 5736 5735
5781 5781 5781 5780 5780 5779 5778 5777 5776 5775 5773 5772 5770 5768 5767 5766 5763 5761 5759 5757 5755 5753 5751 5749 5748 5746 5745 5743 5741 5740 5738 5737 5735 5734 5733 5732 5731 5730 5729 5728 5727 5726 5725
5773 5773 5773 5772 5771 5771 5770 5769 5768 5767 5765 5764 5762 5760 5758 5757 5755 5753 5750 5748 5746 5743 5742 5740 5738 5736 5735 5733 5732 5730 5729 5727 5726 5725 5723 5722 5721 5720 5719 5718 5717 5716 5715
5765 5765 5764 5764 5763 5762 5762 5761 5759 5758 5756 5755 5753 5751 5750 5747 5746 5744 5741 5738 5736 5734 5732 5730 5728 5726 5724 5723 5722 5720 5719 5718 5716 5715 5714 5712 5711 5709 5708 5707 5706 5705 5705
5756 5756 5756 5755 5754 5754 5753 5751 5750 5749 5747 5745 5744 5742 5740 5737 5735 5733 5732 5729 5726 5724 5721 5719 5717 5716 5714 5713 5711 5710 5708 5707 5706 5704 5703 5701 5700 5698 5697 5696 5695 5694 5694
5748 5747 5747 5746 5745 5744 5743 5742 5741 5739 5737 5735 5734 5732 5729 5727 5725 5722 5721 5718 5716 5713 5711 5709 5707 5705 5703 5702 5700 5699 5698 5696 5695 5693 5692 5690 5689 5687 5686 5685 5684 5683 5683
5739 5739 5738 5737 5736 5735 5733 5732 5731 5729 5727 5725 5723 5721 5718 5716 5714 5711 5709 5707 5704 5702 5700 5698 5695 5693 5692 5690 5689 5687 5686 5684 5683 5681 5680 5678 5677 5676 5674 5673 5672 5671 5671
5730 5729 5729 5728 5727 5725 5723 5722 5720 5718 5716 5714 5712 5709 5707 5705 5702 5699 5697 5695 5693 5691 5689 5687 5684 5682 5680 5678 5677 5675 5674 5672 5670 5669 5667 5666 5665 5663 5662 5661 5660 5660 5659
5721 5720 5719 5717 5716 5714 5713 5711 5709 5707 5705 5702 5700 5698 5695 5693 5690 5688 5685 5683 5681 5679 5677 5675 5672 5670 5668 5666 5664 5662 5661 5659 5657 5656 5654 5653 5652 5650 5649 5648 5647 5647 5646
5711 5710 5709 5707 5705 5704 5702 5699 5697 5695 5693 5690 5688 5686 5683 5681 5678 5675 5673 5670 5668 5666 5664 5662 5659 5657 5655 5653 5651 5649 5647 5645 5644 5642 5641 5640 5638 5637 5636 5635 5634 5634 5633
5702 5700 5698 5697 5694 5692 5690 5688 5685 5683 5680 5678 5675 5673 5671 5668 5665 5662 5660 5657 5655 5653 5651 5649 5646 5643 5641 5639 5637 5635 5633 5631 5630 5628 5627 5626 5625 5623 5622 5622 5621 5620 5620
5691 5689 5688 5685 5683 5681 5678 5676 5673 5671 5668 5665 5663 5660 5658 5655 5652 5649 5647 5645 5642 5639 5637 5635 5632 5629 5627 5624 5622 5621 5619 5617 5616 5614 5613 5612 5610 5609 5608 5608 5607 5606 5606
5680 5678 5676 5674 5672 5669 5666 5664 5661 5658 5655 5653 5650 5647 5644 5642 5639 5636 5633 5631 5628 5626 5623 5621 5618 5615 5612 5610 5608 5606 5605 5603 5601 5600 5598 5597 5596 5595 5594 5593 5593 5592 5592
5669 5667 5665 5662 5660 5657 5654 5651 5649 5646 5643 5640 5637 5634 5631 5628 5625 5623 5620 5617 5614 5611 5609 5606 5603 5600 5598 5595 5593 5592 5590 5589 5587 5585 5584 5582 5581 5580 5580 5579 5578 5577 5577
5658 5655 5653 5651 5648 5645 5642 5638 5636 5633 5630 5627 5624 5621 5618 5615 5612 5609 5607 5604 5600 5597 5594 5591 5589 5586 5583 5581 5579 5577 5575 5573 5572 5570 5568 5568 5567 5566 5565 5564 5563 5562 5562
5646 5644 5641 5638 5635 5632 5629 5626 5623 5620 5617 5614 5611 5608 5605 5602 5599 5596 5593 5589 5586 5583 5580 5577 5574 5571 5569 5566 5564 5562 5560 5559 5557 5556 5554 5553 5551 5550 5549 5549 5548 5547 5547
5634 5632 5629 5626 5623 5620 5616 5613 5610 5607 5604 5601 5598 5595 5591 5588 5585 5582 5578 5575 5571 5568 5565 5562 5559 5556 5554 5551 5549 5547 5545 5544 5542 5540 5539 5537 5536 5535 5534 5533 5532 5532 5531
5622 5619 5616 5613 5610 5607 5604 5600 5597 5594 5591 5587 5584 5580 5577 5573 5570 5566 5563 5560 5557 5553 5550 5547 5544 5542 5539 5536 5534 5532 5530 5529 5527 5525 5523 5522 5521 5520 5518 5517 5516 5516 5515
5610 5607 5603 5600 5597 5594 5590 5587 5584 5581 5577 5573 5569 5566 5562 5559 5555 5551 5548 5545 5542 5538 5534 5532 5529 5526 5524 5522 5519 5517 5516 5514 5512 5511 5508 5507 5506 5505 5503 5502 5501 5500 5499
5597 5594 5591 5587 5584 5581 5577 5573 5570 5566 5563 5559 5555 5551 5547 5543 5540 5535 5532 5529 5526 5523 5520 5517 5514 5512 5509 5507 5505 5503 5501 5499 5497 5496 5494 5492 5491 5489 5489 5487 5485 5484 5484